Regional Weather Roundup
Issued by NWS

Home | Current Version | Previous Version | Text Only | Print | Product List | Glossary On
Versions: 1 2 3 4 5 6 7 8 9 10 11 12 13 14 15 16 17 18 19 20 21 22 23 24 25 26 27 28 29 30 31 32 33 34 35 36 37 38 39 40 41 42 43 44 45 46 47 48 49 50
000
ASUS43 KDTX 280410
RWRMI
MICHIGAN HOURLY REGIONAL WEATHER ROUNDUP
NATIONAL WEATHER SERVICE DETROIT/PONTIAC MI
1200 AM EDT SAT MAR 28 2015

NOTE: "FAIR" INDICATES FEW OR NO CLOUDS BELOW 12,000 FEET WITH NO
SIGNIFICANT WEATHER AND/OR OBSTRUCTION TO VISIBILITY.

MIZ047>049-052>055-059>063-066>070-074>076-081>083-280500-
SOUTHEAST LOWER MICHIGAN

CITY           SKY/WX    TMP DP  RH WIND       PRES   REMARKS
ADRIAN         CLEAR     20  10  65 NE7       30.14R
ALMA           CLEAR     18   4  55 N8        30.20R
ANN ARBOR      PTCLDY    19   8  62 NE10      30.15R
BAD AXE        CLOUDY    19  10  70 N13       30.15S
DETROIT CITY   CLEAR     18   5  57 N9        30.16S
DETROIT        PTCLDY    18   7  62 N10       30.17R
FLINT          CLEAR     17   6  62 NE6       30.18R
GROSSE ILE     CLEAR     19   7  58 N13       30.15R
HILLSDALE      CLEAR     20   5  53 N3        30.11R
HOWELL         CLEAR     16   8  68 NE7       30.16R

CITY           SKY/WX    TMP DP  RH WIND       PRES   REMARKS
JACKSON        CLEAR     19   7  59 NE9       30.14R
LAMBERTVILLE   CLEAR     23  12  63 NE3       30.15R
LANSING        CLEAR     18  10  71 NE7       30.18R
LAPEER         NOT AVBL
MASON          PTCLDY    18  10  69 NE5       30.16R
MONROE         PTCLDY    19  10  68 NE7       30.14R
MT. CLEMENS    CLEAR     16   7  68 NW7       30.12F
PONTIAC        CLEAR     14   6  70 N5        30.14R
PORT HOPE        N/A     21  13  71 NW16G24   30.13S
PORT HURON     CLOUDY    18  10  73 CALM      30.15R
TRI CITIES     CLEAR     19   6  57 N10       30.20R
YPSILANTI      CLEAR     20   9  62 NE12      30.16R
$$
MIZ043>046-050>051-056>058-064>065-071>073-077>080-280500-
SOUTHWEST LOWER MICHIGAN

CITY           SKY/WX    TMP DP  RH WIND       PRES   REMARKS
BATTLE CREEK   CLEAR     20   2  45 N10       30.16R
BENTON HARBOR  CLEAR     21  10  62 N8        30.19R
BIG RAPIDS     CLEAR     15   4  62 N5        30.18S
COLDWATER      CLEAR     20  11  68 NW5       30.14R
HOLLAND        CLEAR     20   5  52 N8        30.20R
GRAND RAPIDS   CLEAR     18   1  47 N9        30.19R
KALAMAZOO      CLEAR     17   7  64 N8        30.17R
MARSHALL       CLEAR     19   2  47 N3        30.14R
MUSKEGON       CLEAR     18   5  57 N9        30.22R
$$
MIZ016>042-280500-
NORTHERN LOWER MICHIGAN

CITY           SKY/WX    TMP DP  RH WIND       PRES   REMARKS
ALPENA         CLEAR     14   5  67 NW3       30.19R
BEAVER ISLAND  CLEAR     11   4  71 CALM      30.24R
BELLAIRE       CLEAR     12   6  79 CALM      30.24R
CADILLAC       CLEAR     11   1  63 NW3       30.15S
CHARLEVOIX     CLEAR     13   6  73 N7        30.25S
FRANKFORT      CLEAR     16   6  66 CALM      30.23S
GAYLORD        CLEAR     11   2  67 CALM      30.15R
GRAYLING       CLEAR     10   2  70 NW5       30.17S
HARBOR SPRINGS CLEAR     12   1  61 CALM      30.21S
HOUGHTON LAKE  CLEAR     12   2  64 NW5       30.17R
MANISTEE       CLEAR     12   3  67 CALM      30.23R
OSCODA         CLOUDY    16   4  60 NW9       30.18R
PELLSTON       CLEAR     11   2  67 NW5       30.22S
TRAVERSE CITY  CLEAR     16   5  62 CALM      30.22R
$$
MIZ007>008-015-280500-
EASTERN UPPER MICHIGAN

CITY           SKY/WX    TMP DP  RH WIND       PRES   REMARKS
KINROSS        CLEAR      7   5  92 NW8       30.20S
MACKINAC ISLAN CLEAR     12   4  71 NW10      30.21R WCI  -2
NEWBERRY       CLEAR      5   2  88 CALM      30.21R
S. S. MARIE    CLEAR      9   4  80 W7        30.20S
$$
MIZ004>006-011>014-085-280500-
CENTRAL UPPER MICHIGAN

CITY           SKY/WX    TMP DP  RH WIND       PRES   REMARKS
MANISTIQUE     CLEAR      2   0  88 NW3       30.23S
ESCANABA       CLEAR     12   1  62 CALM      30.24R
MENOMINEE      CLEAR     18   9  68 E5        30.23R
SAWYER-GWINN   CLEAR      2  -3  79 CALM      30.19S
$$
MIZ001>003-009>011-084-280500-
WESTERN UPPER MICHIGAN

CITY           SKY/WX    TMP DP  RH WIND       PRES   REMARKS
IRON MOUNTAIN  CLEAR     12  -1  56 CALM      30.18S
HOUGHTON       CLEAR      8   4  83 CALM      30.18S
COPPER HARBOR    N/A      7   2  80 SW5       30.22S
IRONWOOD       CLEAR     14   7  73 CALM      30.15R
$$

ABBREVIATIONS USED IN REMARKS
   TC - TEMPERATURE IN CELSIUS
  WCI - WIND CHILL INDEX
   HX - HEAT INDEX
  VSB - VISIBILITY



USA.gov is the U.S. government's official web portal to all federal, state and local government web resources and services.